Wind_Speed
35 35 35 36 37 37 36 36 35 34 32 30 29 29 28 27 26 27 27 27 26 26 26 26 27 27 27 28 29 30 30 31 31 32 31 30 29 28 28 28 27 27 27 27
34 35 35 35 35 36 36 36 35 35 33 31 30 29 28 28 27 27 27 27 26 26 26 27 27 27 27 27 28 28 29 30 30 30 28 27 27 27 27 26 26 26 26 26
32 32 33 34 34 33 34 34 35 35 33 31 30 30 29 29 28 28 27 27 26 26 26 27 26 26 27 27 27 28 28 28 28 27 26 26 26 26 26 26 26 26 26 25
30 31 32 31 31 32 32 33 34 34 32 32 31 30 30 30 30 30 28 27 27 26 27 27 26 26 27 27 27 27 27 27 26 25 25 25 25 26 25 25 26 26 25 25
30 31 31 30 30 30 31 31 32 32 32 32 31 30 30 30 30 29 29 28 28 27 27 27 27 26 26 26 26 26 26 25 24 24 24 25 25 25 25 25 25 25 25 25
29 30 30 29 29 29 30 30 30 31 31 31 31 30 29 29 29 28 28 28 27 27 26 26 27 26 26 25 25 25 24 24 24 24 23 24 24 24 24 24 24 24 24 24
28 29 30 29 28 29 29 29 29 30 30 30 30 30 30 29 29 28 27 27 27 27 26 26 26 26 25 25 24 24 24 24 24 24 23 23 23 23 23 23 24 23 24 24
28 29 29 29 29 29 28 28 28 28 29 29 29 29 30 30 28 28 27 26 27 26 26 25 25 25 24 24 24 24 24 23 23 22 22 21 21 22 22 22 22 23 24 23
25 26 26 27 28 28 27 27 26 27 27 28 28 28 29 29 28 27 26 25 25 25 25 25 24 23 23 22 22 22 21 21 21 21 20 20 21 21 22 22 22 22 22 22
25 24 25 26 27 28 28 27 26 26 27 27 28 28 28 28 27 27 25 24 25 25 25 25 24 23 22 22 22 22 21 21 21 21 21 20 21 21 20 21 21 22 22 22
24 24 25 25 26 27 27 27 26 26 26 26 26 27 27 27 26 26 25 25 24 24 24 24 23 23 22 21 21 21 21 20 20 20 20 20 21 21 20 21 21 22 23 23
24 25 25 25 25 26 27 28 27 26 26 26 26 25 26 26 25 25 24 23 23 23 23 23 22 22 21 21 20 20 20 19 19 20 20 20 21 21 21 22 21 22 23 23
25 25 26 25 25 25 25 26 27 26 25 24 24 25 25 25 25 24 24 23 23 23 23 23 22 22 22 21 20 20 19 20 20 21 21 20 21 21 21 22 22 23 23 23
25 25 25 25 25 24 24 25 25 26 26 25 24 24 24 25 24 24 24 24 24 24 23 23 22 22 22 21 21 21 20 21 21 21 21 21 21 21 22 22 22 23 23 24
25 26 25 25 25 25 24 24 25 26 26 26 25 24 24 24 24 23 23 23 24 24 24 23 23 23 22 22 22 22 22 22 22 22 23 23 23 23 23 23 23 24 24 24
26 26 26 25 25 24 24 24 24 25 27 27 26 25 25 24 24 24 23 23 23 24 24 24 24 23 23 23 24 23 23 23 24 24 24 24 24 24 24 25 25 25 25 25
25 26 27 27 26 25 24 24 24 25 27 27 27 26 25 25 25 25 24 24 24 24 24 24 23 24 24 24 24 24 24 24 24 23 23 24 25 25 25 26 26 26 26 26
24 24 25 26 26 25 25 24 24 25 26 26 26 26 25 25 25 25 25 24 24 25 25 24 24 24 25 24 25 25 25 25 24 24 24 24 24 25 25 26 26 26 26 26
22 22 22 23 24 24 25 25 25 26 27 27 27 26 25 25 25 26 26 26 26 26 26 26 25 25 25 25 25 25 25 24 24 24 25 25 25 25 25 26 26 26 26 26
22 21 21 21 22 23 24 26 26 26 27 28 28 27 26 26 26 26 26 26 26 26 25 26 25 26 25 25 25 25 25 25 24 25 25 25 25 26 25 25 25 25 26 26
22 21 21 21 22 22 23 25 26 27 27 27 28 28 27 27 26 26 26 26 26 26 25 25 25 25 25 25 26 26 25 25 26 26 26 26 26 25 25 25 25 25 25 25
21 21 21 21 21 21 22 23 24 25 26 27 27 28 27 27 27 27 27 27 27 27 26 26 26 25 25 25 25 26 26 26 26 26 26 26 26 25 25 25 26 26 25 25
19 20 21 21 21 22 22 22 23 25 26 27 27 27 27 27 27 27 28 28 27 27 27 27 26 26 25 25 25 26 26 26 26 26 26 26 26 26 25 25 25 25 24 24
18 19 20 20 21 22 22 22 23 23 24 25 26 27 27 27 27 27 27 27 27 27 27 27 27 26 26 26 26 26 26 26 26 26 26 26 25 25 25 25 25 24 25 24
17 18 19 19 20 21 22 23 24 24 24 25 26 26 27 27 26 26 26 26 26 26 26 26 26 26 26 25 25 25 25 25 24 24 24 24 24 24 24 24 24 24 24 23
17 17 18 18 19 19 21 22 23 23 24 24 25 26 26 27 27 27 26 26 26 26 25 25 25 26 25 25 25 24 24 23 23 23 23 23 23 23 22 22 22 22 22 22
17 18 18 18 18 19 19 20 21 22 22 23 24 25 25 26 26 26 25 25 25 25 25 25 25 25 25 25 24 24 23 23 23 23 23 23 22 22 22 21 21 21 21 21
Wind_Direction
228 228 228 228 227 228 231 232 236 238 241 242 244 246 247 247 247 249 252 256 258 261 263 266 268 271 275 278 281 283 284 285 287 288 287 285 283 280 281 283 285 287 289 290
229 230 230 229 228 229 230 232 235 237 239 240 242 244 246 246 247 248 252 255 258 261 264 267 269 273 276 279 281 284 285 286 288 289 287 283 281 280 280 283 284 285 287 289
229 229 231 230 229 231 233 234 236 239 240 240 241 243 244 245 245 247 250 253 256 260 263 266 271 274 276 278 280 283 285 287 288 288 286 282 279 280 281 283 283 284 285 288
227 227 228 227 228 230 232 233 235 237 239 240 240 241 242 243 245 247 250 253 257 260 262 266 269 273 277 279 282 284 286 287 287 288 286 282 279 279 281 282 282 283 282 286
226 229 229 228 228 229 231 233 235 237 238 240 241 242 243 244 247 249 252 254 256 259 262 265 268 273 275 277 281 285 286 286 286 288 287 284 282 281 282 283 283 282 281 284
228 231 231 230 229 231 233 235 236 238 239 240 241 242 243 244 247 249 252 254 255 258 261 264 268 272 275 277 279 282 284 285 285 287 287 286 285 283 283 283 283 282 281 283
230 232 234 233 233 234 236 236 238 241 242 241 241 243 243 244 247 248 250 252 255 258 261 264 268 271 274 277 277 279 282 284 284 285 285 284 286 286 283 283 283 283 283 283
232 233 232 234 236 237 238 239 241 242 243 243 244 245 246 247 249 251 252 254 255 258 260 264 267 270 274 276 276 278 281 283 285 284 283 283 285 285 285 285 285 283 284 285
231 232 232 234 236 237 238 239 240 241 242 243 244 245 246 248 248 250 253 254 256 257 259 261 264 269 273 274 275 277 279 283 285 285 284 284 287 287 285 284 284 284 284 286
232 232 232 234 237 238 239 241 242 243 243 243 244 244 246 248 249 249 251 253 256 256 259 260 263 265 268 272 275 277 280 282 285 286 285 284 287 289 287 284 283 284 285 286
232 233 233 235 237 237 238 240 242 243 243 244 245 244 245 247 248 249 250 253 255 256 258 260 260 261 265 270 275 279 280 281 284 285 284 284 285 286 285 284 284 283 285 284
234 235 235 236 238 239 240 241 242 243 242 243 243 243 244 245 246 249 251 253 254 255 256 258 258 259 263 268 273 277 278 280 281 283 285 284 284 286 288 286 284 284 285 285
236 237 237 238 239 241 241 240 241 242 241 240 240 241 243 244 245 247 249 251 253 256 257 257 258 260 264 268 272 276 277 277 279 282 283 283 282 284 286 287 286 286 287 288
236 236 237 238 240 241 241 240 239 240 239 238 238 240 242 244 245 247 249 251 253 257 257 256 256 257 261 266 269 273 276 279 281 283 282 283 283 285 287 289 289 289 289 291
237 237 238 240 240 240 241 240 238 238 238 238 239 241 242 243 245 248 250 252 255 256 255 254 255 258 260 264 268 273 277 280 283 285 285 286 286 287 289 290 289 289 289 290
239 239 239 240 240 240 240 240 238 237 237 238 238 240 241 243 246 248 250 252 255 256 255 255 255 258 261 264 267 270 275 280 282 284 285 286 288 289 289 291 292 291 290 290
242 240 239 239 240 240 240 240 238 236 236 236 237 237 239 243 246 248 249 252 253 253 254 256 257 258 261 263 265 268 274 279 281 283 285 286 288 288 289 290 293 294 292 291
243 243 243 241 240 241 242 242 240 238 237 236 235 236 238 242 246 248 251 252 252 251 253 255 258 261 262 263 266 269 272 276 279 281 283 286 289 290 289 291 293 292 291 290
245 245 245 244 243 243 242 241 239 238 237 237 238 239 241 244 247 249 251 253 253 253 254 256 258 262 264 265 267 269 272 275 279 281 282 284 286 288 289 290 291 291 290 291
246 246 246 245 245 244 243 241 240 240 239 239 241 242 242 244 247 249 250 252 252 253 255 256 259 263 265 267 268 270 272 274 277 280 282 283 285 286 288 289 290 291 291 291
245 245 245 245 246 246 244 242 240 240 240 241 242 243 245 246 247 249 250 251 253 253 254 255 259 262 264 267 268 269 272 275 278 280 281 282 282 284 286 288 289 290 291 291
242 242 244 245 246 246 245 244 243 243 243 243 244 245 246 247 248 250 250 251 252 254 255 256 258 261 264 267 268 270 272 275 278 280 282 282 282 284 286 289 291 291 291 292
242 243 244 245 246 247 247 247 247 247 247 247 246 246 246 248 249 250 250 251 253 254 256 257 259 261 264 267 269 270 272 274 277 280 282 281 281 283 286 289 291 291 291 291
247 246 246 246 247 247 248 248 249 249 249 248 247 246 246 248 249 250 251 252 254 255 255 257 259 262 264 267 268 270 272 274 277 280 281 281 281 282 284 286 288 288 290 290
250 249 249 248 249 249 249 248 249 251 251 250 248 246 246 248 250 251 252 253 254 256 257 258 260 262 264 266 268 270 271 273 275 278 281 281 282 282 283 284 286 287 287 287
251 251 252 251 251 251 251 249 249 250 252 251 249 248 248 248 249 249 251 252 254 256 258 259 261 262 263 265 267 269 271 272 274 278 280 282 282 282 282 284 284 285 286 285
253 252 252 253 254 253 251 250 250 250 251 250 248 247 247 248 248 248 250 251 253 255 258 260 260 261 262 264 266 268 269 271 274 278 280 281 281 280 280 280 281 283 284 283
Height
5569 5574 5578 5584 5589 5593 5597 5601 5605 5610 5613 5617 5619 5621 5623 5625 5628 5629 5630 5631 5631 5631 5631 5629 5628 5627 5625 5623 5621 5618 5616 5613 5611 5607 5604 5601 5599 5598 5597 5596 5595 5594 5592 5590
5562 5566 5570 5574 5579 5584 5588 5593 5597 5600 5604 5608 5610 5612 5615 5617 5619 5621 5622 5623 5623 5623 5623 5622 5620 5619 5617 5615 5613 5610 5608 5605 5602 5599 5596 5594 5592 5591 5591 5590 5589 5588 5586 5585
5554 5558 5562 5567 5572 5576 5581 5585 5589 5592 5597 5598 5601 5604 5607 5609 5610 5612 5613 5614 5615 5615 5615 5614 5613 5611 5609 5607 5605 5602 5600 5597 5594 5591 5589 5587 5586 5585 5585 5584 5583 5582 5581 5579
5547 5552 5556 5563 5565 5569 5572 5576 5579 5583 5587 5590 5593 5595 5597 5599 5602 5604 5605 5607 5607 5607 5607 5606 5605 5603 5602 5599 5597 5595 5593 5590 5587 5585 5583 5581 5580 5580 5579 5578 5577 5576 5575 5574
5540 5544 5548 5554 5558 5561 5564 5568 5571 5574 5578 5581 5584 5587 5589 5591 5593 5596 5597 5598 5599 5599 5599 5599 5598 5596 5594 5592 5591 5588 5586 5584 5581 5579 5577 5576 5575 5574 5573 5572 5571 5570 5569 5568
5534 5537 5542 5548 5551 5553 5558 5561 5564 5566 5569 5572 5575 5579 5582 5584 5586 5588 5589 5590 5591 5592 5591 5591 5590 5589 5587 5586 5584 5582 5580 5578 5576 5574 5572 5571 5570 5568 5567 5566 5566 5565 5564 5562
5527 5530 5534 5540 5543 5546 5551 5554 5557 5559 5561 5564 5568 5571 5574 5575 5578 5580 5581 5582 5583 5584 5584 5584 5583 5582 5580 5579 5578 5576 5574 5572 5570 5568 5567 5566 5564 5563 5562 5561 5560 5559 5558 5557
5520 5524 5530 5532 5535 5539 5542 5546 5548 5551 5554 5557 5560 5562 5565 5567 5569 5571 5573 5574 5575 5576 5576 5576 5576 5575 5574 5573 5572 5570 5568 5566 5565 5563 5562 5561 5559 5558 5556 5555 5554 5553 5552 5551
5515 5520 5522 5524 5527 5531 5534 5538 5540 5543 5546 5549 5552 5554 5556 5559 5561 5563 5565 5566 5567 5568 5569 5569 5569 5569 5568 5567 5565 5564 5562 5561 5560 5558 5556 5555 5554 5553 5552 5550 5549 5548 5547 5546
5508 5511 5514 5517 5520 5523 5526 5530 5533 5536 5539 5541 5544 5546 5548 5551 5553 5555 5557 5558 5559 5560 5561 5561 5562 5562 5561 5560 5560 5559 5557 5556 5555 5553 5552 5550 5549 5548 5547 5546 5545 5544 5542 5541
5501 5504 5507 5510 5512 5516 5519 5522 5525 5528 5531 5533 5536 5538 5540 5543 5545 5547 5549 5550 5552 5553 5554 5554 5554 5555 5554 5554 5554 5553 5552 5551 5549 5548 5547 5546 5544 5543 5542 5541 5540 5539 5537 5536
5495 5498 5500 5503 5506 5508 5511 5514 5517 5520 5523 5525 5528 5530 5532 5535 5537 5539 5541 5542 5544 5545 5546 5547 5547 5548 5548 5548 5548 5547 5546 5545 5544 5543 5542 5541 5539 5538 5536 5536 5534 5533 5532 5530
5488 5491 5493 5496 5499 5501 5504 5507 5510 5513 5516 5518 5520 5522 5525 5527 5529 5531 5533 5535 5536 5537 5538 5539 5540 5541 5541 5542 5542 5541 5541 5540 5539 5537 5536 5535 5534 5533 5532 5530 5528 5527 5526 5524
5481 5484 5486 5489 5492 5494 5496 5499 5502 5504 5507 5510 5513 5515 5517 5520 5522 5524 5526 5527 5529 5530 5531 5532 5533 5534 5535 5535 5535 5535 5535 5534 5533 5532 5530 5529 5528 5527 5526 5525 5523 5521 5519 5517
5475 5477 5480 5482 5484 5487 5489 5491 5494 5497 5499 5502 5505 5508 5510 5512 5514 5516 5518 5520 5521 5523 5524 5525 5526 5527 5527 5528 5528 5528 5528 5528 5526 5525 5524 5523 5522 5521 5520 5518 5517 5515 5513 5511
5467 5470 5472 5475 5477 5479 5481 5484 5486 5489 5492 5494 5497 5500 5503 5505 5507 5509 5511 5512 5514 5515 5516 5517 5518 5519 5520 5521 5521 5521 5521 5521 5520 5519 5518 5517 5516 5515 5513 5512 5510 5508 5506 5504
5460 5462 5465 5467 5470 5472 5474 5476 5478 5481 5483 5486 5489 5492 5495 5498 5500 5501 5503 5505 5506 5508 5509 5510 5511 5512 5513 5513 5514 5514 5514 5514 5513 5512 5511 5510 5509 5507 5506 5504 5503 5501 5499 5497
5453 5455 5457 5460 5462 5464 5467 5469 5471 5473 5476 5479 5481 5485 5488 5490 5492 5494 5496 5497 5499 5500 5502 5503 5504 5504 5505 5506 5506 5506 5506 5506 5505 5505 5504 5503 5501 5500 5498 5497 5495 5493 5492 5490
5446 5448 5450 5452 5454 5457 5459 5461 5463 5466 5468 5471 5474 5477 5480 5482 5485 5486 5488 5490 5491 5493 5494 5495 5496 5497 5497 5498 5498 5499 5499 5498 5498 5497 5496 5495 5494 5492 5491 5489 5487 5485 5483 5481
5440 5441 5443 5445 5447 5449 5451 5453 5456 5458 5461 5464 5466 5469 5472 5474 5477 5478 5480 5481 5483 5484 5486 5487 5488 5489 5489 5490 5490 5491 5491 5490 5490 5489 5488 5487 5486 5484 5483 5481 5479 5477 5475 5473
5434 5435 5437 5438 5440 5441 5443 5445 5448 5450 5453 5456 5459 5461 5464 5466 5468 5470 5472 5473 5475 5476 5478 5479 5480 5481 5481 5482 5482 5482 5482 5482 5481 5481 5480 5479 5477 5476 5475 5473 5471 5469 5468 5466
5427 5429 5430 5432 5433 5435 5436 5438 5440 5443 5445 5448 5450 5453 5455 5458 5460 5461 5463 5465 5466 5468 5469 5470 5471 5472 5472 5473 5473 5474 5474 5473 5473 5472 5471 5470 5469 5468 5466 5465 5463 5461 5459 5458
5421 5422 5424 5425 5426 5428 5429 5431 5433 5435 5437 5440 5442 5445 5447 5449 5451 5453 5455 5456 5458 5459 5460 5461 5462 5463 5464 5464 5465 5465 5465 5464 5464 5464 5463 5462 5460 5459 5458 5456 5455 5453 5451 5450
5414 5415 5417 5418 5419 5421 5423 5424 5426 5427 5429 5431 5434 5436 5438 5441 5443 5444 5446 5447 5449 5450 5451 5453 5454 5454 5455 5455 5456 5456 5456 5456 5455 5455 5454 5453 5452 5450 5449 5448 5447 5445 5443 5442
5408 5409 5410 5411 5412 5414 5415 5417 5418 5420 5421 5423 5425 5427 5430 5432 5434 5436 5437 5438 5440 5441 5442 5444 5445 5445 5446 5447 5447 5447 5447 5447 5447 5446 5445 5444 5443 5442 5441 5440 5438 5437 5435 5433
5401 5402 5403 5404 5405 5407 5408 5409 5410 5412 5413 5415 5417 5418 5421 5423 5425 5427 5428 5430 5431 5433 5434 5435 5436 5437 5437 5438 5438 5439 5439 5438 5438 5438 5437 5436 5435 5434 5433 5431 5430 5429 5427 5426
5395 5396 5397 5398 5399 5399 5400 5401 5403 5404 5405 5407 5408 5410 5412 5414 5416 5418 5420 5421 5423 5424 5425 5426 5427 5428 5429 5429 5430 5430 5430 5430 5430 5430 5429 5428 5427 5426 5424 5423 5422 5421 5420 5418